Regional Weather Roundup
Issued by NWS

Home | Current Version | Previous Version | Text Only | Print | Product List | Glossary Off
Versions: 1 2 3 4 5 6 7 8 9 10 11 12 13 14 15 16 17 18 19 20 21 22 23 24 25 26 27 28 29 30 31 32 33 34 35 36 37 38 39 40 41 42 43 44 45 46 47 48 49 50

000
ASUS43 KDMX 271907
RWRIA

WEATHER ROUNDUP FOR IOWA
NATIONAL WEATHER SERVICE DES MOINES IA
200 PM CDT MON APR 27 2015

NOTE: "FAIR" INDICATES FEW OR NO CLOUDS BELOW 12,000 FEET WITH NO
SIGNIFICANT WEATHER AND/OR OBSTRUCTIONS TO VISIBILITY.

* - THESE STATIONS ARE NOT NWS STATIONS...THUS NOT UNDER NWS
QUALITY CONTROL.  THEY ALSO DO NOT REPORT WEATHER SUCH
AS PRECIPITATION OR FOG.

IAZ001>003-012>014-020>022-031>034-043>046-272000-
   NORTHWEST IOWA

CITY           SKY/WX    TMP DP  RH WIND       PRES   REMARKS
CARROLL *      SUNNY     64  28  25 NE10G21   30.17F
CHEROKEE *     SUNNY     66  30  26 NE9       30.19F
DENISON *      SUNNY     64  30  27 N15       30.15F
LE MARS *      SUNNY     68  25  19 NE8G15    30.20F
ORANGE CITY *  SUNNY     64  25  22 E8        30.19F
SHELDON *      SUNNY     66  23  19 E12       30.19S
SIOUX CITY     SUNNY     69  27  20 NE10      30.18F
SPENCER        SUNNY     67  29  24 NE14G20   30.20F
STORM LAKE *   SUNNY     64  25  22 NE13      30.20S
$$

IAZ055>058-069>071-079>083-090>094-272000-
   SOUTHWEST IOWA

CITY           SKY/WX    TMP DP  RH WIND       PRES   REMARKS
ATLANTIC *     SUNNY     64  30  27 NE15      30.16F
AUDUBON *      SUNNY     64  25  22 NE15      30.17F
CLARINDA *     SUNNY     66  32  28 VRB7G20   30.16F
COUNCIL BLFS * SUNNY     64  34  32 NE14      30.16F
CRESTON *      SUNNY     63  30  29 NE15      30.15F
HARLAN  *      SUNNY     66  30  26 NE13      30.19F
LAMONI         SUNNY     66  34  30 NE15G22   30.13F
RED OAK *      SUNNY     64  32  29 NE13      30.15F
SHENANDOAH *   SUNNY     66  32  28 NE17      30.15F
$$

IAZ047>049-059>061-072>074-084-272000-
   CENTRAL IOWA

CITY           SKY/WX    TMP DP  RH WIND       PRES   REMARKS
AMES           SUNNY     64  33  31 MISG      30.17F
ANKENY *       SUNNY     64  34  32 N12G17    30.16F
CHARITON *     SUNNY     63  34  34 N12G18    30.15F
DES MOINES     MOSUNNY   66  30  26 N7        30.16F
GRINNELL*      SUNNY     63  30  29 NE9       30.17F
KNOXVILLE *    SUNNY     63  32  31 N12G17    30.15F
MARSHALLTOWN   SUNNY     62  32  32 VRB5      30.16F
PELLA *        SUNNY     64  39  39 NE9       30.17F
PERRY *          N/A     64  30  27 N8G17     30.17F
$$

IAZ004>006-015-016-023>025-035-036-272000-
   NORTH CENTRAL IOWA

CITY           SKY/WX    TMP DP  RH WIND       PRES   REMARKS
ALGONA *       SUNNY     64  30  27 NE16      30.19F
CLARION *      SUNNY     63  32  31 NE10G20   30.19S
ESTHERVILLE    SUNNY     64  29  26 NE16      30.20F
FORT DODGE *   SUNNY     64  36  34 N12       30.20S
MASON CITY     SUNNY     63  31  30 NE15      30.20F
FOREST CITY *  SUNNY     61  32  33 N14       30.19F
IOWA FALLS *     N/A     63  32  31 NE8       30.19F
$$

IAZ007>011-017>019-026>030-037>042-050>054-066-272000-
   NORTHEAST IOWA

CITY           SKY/WX    TMP DP  RH WIND       PRES   REMARKS
CEDAR RAPIDS   SUNNY     62  36  37 N10       30.15F
CHARLES CITY * SUNNY     63  30  29 NW8       30.18F
CLINTON *      SUNNY     61  36  39 N15       30.17S
DECORAH *      SUNNY     61  34  36 NW9G17    30.16F
DUBUQUE        SUNNY     61  34  36 VRB7      30.15F
MONTICELLO *   SUNNY     63  34  34 N10G16    30.14F
OELWEIN *      SUNNY     61  34  36 N7G14     30.17F
WATERLOO       SUNNY     63  33  32 VRB3      30.16F
$$

IAZ064-065-067-068-078-272000-
   EAST CENTRAL IOWA

CITY           SKY/WX    TMP DP  RH WIND       PRES   REMARKS
DAVENPORT      SUNNY     62  35  36 N10G20    30.14F
IOWA CITY      SUNNY     63  37  38 N12       30.16F
MT. PLEASANT * SUNNY     63  34  34 N8        30.14F
MUSCATINE *    SUNNY     64  36  34 N8        30.15F
QUAD CITIES    SUNNY     64  36  35 N9        30.13F
$$

IAZ062-063-075>077-085>089-095>099-272000-
   SOUTHEAST IOWA

CITY           SKY/WX    TMP DP  RH WIND       PRES   REMARKS
BURLINGTON     SUNNY     63  37  38 NE8       30.13F
FAIRFIELD *    SUNNY     63  32  31 N7G16     30.15F
FORT MADISON * SUNNY     64  36  34 NE9       30.14F
KEOKUK *       SUNNY     63  37  39 VRB9      30.12F
OSKALOOSA *      N/A     63  32  31 NE6       30.15F
CENTERVILLE *  SUNNY     64  37  36 N10G18    30.15F
OTTUMWA        SUNNY     62  35  36 E7        30.15F
WASHINGTON *   SUNNY     63  34  34 N8G15     30.15F
$$

ABBREVIATIONS USED IN REMARKS
   TC - TEMPERATURES IN CELSIUS
  WCI - WIND CHILL INDEX
   HX - HEAT INDEX
  VSB - VISIBILITY
$$




USA.gov is the U.S. government's official web portal to all federal, state and local government web resources and services.